Time,TemperatureF,DewpointF,PressureIn,WindDirection,WindDirectionDegrees,WindSpeedMPH,WindSpeedGustMPH,Humidity,HourlyPrecipIn,Conditions,Clouds,dailyrainin,SoftwareType,DateUTC
2013-11-12 00:00:00,25.2,20.0,30.60,North,355,4.0,12.0,82,0.00,,,0.01,weatherlink.com 1.10,2013-11-12 06:00:00,
2013-11-12 00:15:00,24.8,20.0,30.61,North,355,10.0,12.0,81,0.00,,,0.01,weatherlink.com 1.10,2013-11-12 06:15:00,
2013-11-12 00:31:00,24.5,19.0,30.61,North,9,9.0,13.0,81,0.00,,,0.01,weatherlink.com 1.10,2013-11-12 06:31:00,
2013-11-12 00:46:00,24.0,19.0,30.62,NNW,344,3.0,11.0,81,0.00,,,0.01,weatherlink.com 1.10,2013-11-12 06:46:00,
2013-11-12 01:01:00,23.7,19.0,30.62,NNW,337,7.0,12.0,81,0.00,,,0.01,weatherlink.com 1.10,2013-11-12 07:01:00,
2013-11-12 01:16:00,23.5,18.0,30.63,North,355,7.0,13.0,80,0.00,,,0.01,weatherlink.com 1.10,2013-11-12 07:16:00,
2013-11-12 01:31:00,23.3,18.0,30.63,NNW,342,6.0,14.0,80,0.00,,,0.01,weatherlink.com 1.10,2013-11-12 07:31:00,
2013-11-12 01:46:00,22.6,18.0,30.64,NNW,336,4.0,8.0,83,0.00,,,0.01,weatherlink.com 1.10,2013-11-12 07:46:00,
2013-11-12 02:01:00,22.2,18.0,30.64,North,355,7.0,9.0,85,0.00,,,0.01,weatherlink.com 1.10,2013-11-12 08:01:00,
2013-11-12 02:16:00,21.8,18.0,30.65,NW,313,5.0,9.0,86,0.00,,,0.01,weatherlink.com 1.10,2013-11-12 08:16:00,
2013-11-12 02:31:00,21.4,18.0,30.66,North,350,5.0,9.0,85,0.00,,,0.01,weatherlink.com 1.10,2013-11-12 08:31:00,
2013-11-12 02:46:00,21.0,17.0,30.66,NNW,338,4.0,8.0,85,0.00,,,0.01,weatherlink.com 1.10,2013-11-12 08:46:00,
2013-11-12 03:01:00,20.5,17.0,30.66,NNW,338,7.0,10.0,86,0.00,,,0.01,weatherlink.com 1.10,2013-11-12 09:01:00,
2013-11-12 03:16:00,20.2,17.0,30.67,North,360,3.0,9.0,86,0.00,,,0.01,weatherlink.com 1.10,2013-11-12 09:16:00,
2013-11-12 03:31:00,20.0,16.0,30.67,NNW,342,6.0,10.0,85,0.00,,,0.01,weatherlink.com 1.10,2013-11-12 09:31:00,
2013-11-12 03:46:00,19.7,16.0,30.68,NNW,346,8.0,12.0,86,0.00,,,0.01,weatherlink.com 1.10,2013-11-12 09:46:00,
2013-11-12 04:01:00,19.4,16.0,30.69,NNW,332,9.0,13.0,85,0.00,,,0.01,weatherlink.com 1.10,2013-11-12 10:01:00,
2013-11-12 04:16:00,19.3,15.0,30.70,North,5,5.0,13.0,84,0.00,,,0.01,weatherlink.com 1.10,2013-11-12 10:16:00,
2013-11-12 04:31:00,19.1,15.0,30.70,NNW,348,6.0,10.0,84,0.00,,,0.01,weatherlink.com 1.10,2013-11-12 10:31:00,
2013-11-12 04:46:00,19.0,15.0,30.71,NNW,331,5.0,11.0,84,0.00,,,0.01,weatherlink.com 1.10,2013-11-12 10:46:00,
2013-11-12 05:01:00,18.9,15.0,30.71,North,355,6.0,12.0,83,0.00,,,0.01,weatherlink.com 1.10,2013-11-12 11:01:00,
2013-11-12 05:16:00,18.7,14.0,30.72,NNW,340,9.0,11.0,83,0.00,,,0.01,weatherlink.com 1.10,2013-11-12 11:16:00,
2013-11-12 05:31:00,18.5,14.0,30.73,NNW,328,8.0,12.0,83,0.00,,,0.01,weatherlink.com 1.10,2013-11-12 11:31:00,
2013-11-12 05:46:00,18.3,14.0,30.74,NNW,329,6.0,10.0,83,0.00,,,0.01,weatherlink.com 1.10,2013-11-12 11:46:00,
2013-11-12 06:01:00,18.2,14.0,30.75,NNW,347,8.0,11.0,83,0.00,,,0.01,weatherlink.com 1.10,2013-11-12 12:01:00,
2013-11-12 06:17:00,18.1,14.0,30.76,North,360,7.0,13.0,83,0.00,,,0.01,weatherlink.com 1.10,2013-11-12 12:17:00,
2013-11-12 06:32:00,17.9,14.0,30.76,NNW,346,6.0,10.0,83,0.00,,,0.01,weatherlink.com 1.10,2013-11-12 12:32:00,
2013-11-12 06:47:00,17.8,14.0,30.78,North,350,7.0,11.0,83,0.00,,,0.01,weatherlink.com 1.10,2013-11-12 12:47:00,
2013-11-12 07:02:00,17.8,14.0,30.78,North,355,6.0,13.0,83,0.00,,,0.01,weatherlink.com 1.10,2013-11-12 13:02:00,
2013-11-12 07:17:00,17.8,14.0,30.78,NNW,340,3.0,10.0,83,0.00,,,0.01,weatherlink.com 1.10,2013-11-12 13:17:00,
2013-11-12 07:32:00,18.3,14.0,30.79,NNW,327,5.0,9.0,83,0.00,,,0.01,weatherlink.com 1.10,2013-11-12 13:32:00,
2013-11-12 07:47:00,19.0,14.0,30.79,NW,320,3.0,8.0,82,0.00,,,0.01,weatherlink.com 1.10,2013-11-12 13:47:00,
2013-11-12 08:02:00,19.5,15.0,30.79,NW,319,3.0,11.0,81,0.00,,,0.01,weatherlink.com 1.10,2013-11-12 14:02:00,
2013-11-12 08:17:00,20.0,15.0,30.80,NNW,338,8.0,10.0,79,0.00,,,0.01,weatherlink.com 1.10,2013-11-12 14:17:00,
2013-11-12 08:32:00,20.6,15.0,30.81,NNW,346,6.0,11.0,79,0.00,,,0.01,weatherlink.com 1.10,2013-11-12 14:32:00,
2013-11-12 08:47:00,20.9,15.0,30.82,NW,315,10.0,11.0,78,0.00,,,0.01,weatherlink.com 1.10,2013-11-12 14:47:00,
2013-11-12 09:02:00,21.7,16.0,30.81,WNW,288,4.0,10.0,78,0.00,,,0.01,weatherlink.com 1.10,2013-11-12 15:02:00,
2013-11-12 09:17:00,22.1,16.0,30.82,North,355,6.0,11.0,78,0.00,,,0.01,weatherlink.com 1.10,2013-11-12 15:17:00,
2013-11-12 09:32:00,22.7,17.0,30.82,North,5,6.0,11.0,78,0.00,,,0.01,weatherlink.com 1.10,2013-11-12 15:32:00,
2013-11-12 09:47:00,23.3,17.0,30.82,North,355,4.0,10.0,77,0.00,,,0.01,weatherlink.com 1.10,2013-11-12 15:47:00,
2013-11-12 10:02:00,24.3,18.0,30.83,North,350,4.0,11.0,76,0.00,,,0.01,weatherlink.com 1.10,2013-11-12 16:02:00,
2013-11-12 10:17:00,24.9,18.0,30.82,NNW,340,4.0,8.0,76,0.00,,,0.01,weatherlink.com 1.10,2013-11-12 16:17:00,
2013-11-12 10:32:00,25.3,18.0,30.82,NW,319,3.0,10.0,75,0.00,,,0.01,weatherlink.com 1.10,2013-11-12 16:32:00,
2013-11-12 10:47:00,25.6,18.0,30.82,NNW,343,3.0,9.0,74,0.00,,,0.01,weatherlink.com 1.10,2013-11-12 16:47:00,
2013-11-12 11:02:00,26.1,19.0,30.82,NW,305,6.0,11.0,75,0.00,,,0.01,weatherlink.com 1.10,2013-11-12 17:02:00,
2013-11-12 11:17:00,26.5,19.0,30.81,NW,321,4.0,10.0,73,0.00,,,0.01,weatherlink.com 1.10,2013-11-12 17:17:00,
2013-11-12 11:32:00,27.6,20.0,30.81,WNW,286,2.0,8.0,74,0.00,,,0.01,weatherlink.com 1.10,2013-11-12 17:32:00,
2013-11-12 11:47:00,27.8,21.0,30.81,NW,325,2.0,10.0,74,0.00,,,0.01,weatherlink.com 1.10,2013-11-12 17:47:00,
2013-11-12 12:02:00,28.4,20.0,30.81,WNW,298,8.0,12.0,72,0.00,,,0.01,weatherlink.com 1.10,2013-11-12 18:02:00,
2013-11-12 12:17:00,28.3,20.0,30.81,NW,304,6.0,12.0,71,0.00,,,0.00,weatherlink.com 1.10,2013-11-12 18:17:00,
2013-11-12 12:32:00,28.6,19.0,30.80,NNW,343,5.0,13.0,68,0.01,,,0.01,weatherlink.com 1.10,2013-11-12 18:32:00,
2013-11-12 12:47:00,29.4,19.0,30.80,WNW,303,7.0,14.0,66,0.01,,,0.01,weatherlink.com 1.10,2013-11-12 18:47:00,
2013-11-12 13:02:00,29.3,19.0,30.79,NW,313,8.0,14.0,66,0.01,,,0.01,weatherlink.com 1.10,2013-11-12 19:02:00,
2013-11-12 13:17:00,29.8,19.0,30.78,WNW,290,6.0,16.0,65,0.01,,,0.01,weatherlink.com 1.10,2013-11-12 19:17:00,
2013-11-12 13:32:00,30.1,20.0,30.78,NW,317,7.0,12.0,65,0.00,,,0.01,weatherlink.com 1.10,2013-11-12 19:32:00,
2013-11-12 13:47:00,30.2,18.0,30.78,NW,320,8.0,12.0,61,0.00,,,0.01,weatherlink.com 1.10,2013-11-12 19:47:00,
2013-11-12 14:02:00,30.8,19.0,30.79,NNW,337,12.0,12.0,63,0.00,,,0.01,weatherlink.com 1.10,2013-11-12 20:02:00,
2013-11-12 14:17:00,30.6,19.0,30.78,NW,323,9.0,13.0,63,0.00,,,0.01,weatherlink.com 1.10,2013-11-12 20:17:00,
2013-11-12 14:32:00,30.5,18.0,30.78,NW,321,8.0,14.0,61,0.00,,,0.01,weatherlink.com 1.10,2013-11-12 20:32:00,
2013-11-12 14:47:00,30.7,18.0,30.78,NW,304,9.0,11.0,60,0.00,,,0.01,weatherlink.com 1.10,2013-11-12 20:47:00,
2013-11-12 15:02:00,30.6,18.0,30.78,North,360,6.0,13.0,61,0.00,,,0.01,weatherlink.com 1.10,2013-11-12 21:02:00,
2013-11-12 15:17:00,30.4,18.0,30.78,NW,320,9.0,12.0,60,0.00,,,0.01,weatherlink.com 1.10,2013-11-12 21:17:00,
2013-11-12 15:32:00,30.3,18.0,30.78,NNW,346,8.0,10.0,61,0.00,,,0.01,weatherlink.com 1.10,2013-11-12 21:32:00,
2013-11-12 15:47:00,30.1,19.0,30.77,NNE,17,8.0,11.0,64,0.00,,,0.01,weatherlink.com 1.10,2013-11-12 21:47:00,
2013-11-12 16:02:00,29.7,19.0,30.77,NW,325,6.0,10.0,65,0.00,,,0.01,weatherlink.com 1.10,2013-11-12 22:02:00,
2013-11-12 16:17:00,29.0,19.0,30.76,NNW,329,4.0,9.0,67,0.00,,,0.01,weatherlink.com 1.10,2013-11-12 22:17:00,
2013-11-12 16:32:00,28.6,18.0,30.76,WNW,294,1.0,8.0,65,0.00,,,0.01,weatherlink.com 1.10,2013-11-12 22:32:00,
2013-11-12 16:47:00,27.9,18.0,30.76,NW,313,4.0,6.0,67,0.00,,,0.01,weatherlink.com 1.10,2013-11-12 22:47:00,
2013-11-12 17:03:00,27.2,17.0,30.75,WNW,300,1.0,5.0,66,0.00,,,0.01,weatherlink.com 1.10,2013-11-12 23:03:00,
2013-11-12 17:18:00,26.8,17.0,30.75,NW,307,0.0,2.0,67,0.00,,,0.01,weatherlink.com 1.10,2013-11-12 23:18:00,
2013-11-12 17:33:00,26.2,17.0,30.75,NW,309,1.0,1.0,68,0.00,,,0.01,weatherlink.com 1.10,2013-11-12 23:33:00,
2013-11-12 17:48:00,25.9,17.0,30.76,NW,321,0.0,3.0,70,0.00,,,0.01,weatherlink.com 1.10,2013-11-12 23:48:00,
2013-11-12 18:03:00,25.7,16.0,30.76,NW,321,1.0,2.0,68,0.00,,,0.01,weatherlink.com 1.10,2013-11-13 00:03:00,
2013-11-12 18:18:00,25.2,16.0,30.76,NW,321,1.0,2.0,69,0.00,,,0.01,weatherlink.com 1.10,2013-11-13 00:18:00,
2013-11-12 18:33:00,24.8,17.0,30.77,NW,322,2.0,3.0,71,0.00,,,0.01,weatherlink.com 1.10,2013-11-13 00:33:00,
2013-11-12 18:48:00,24.5,17.0,30.76,NW,318,0.0,3.0,72,0.00,,,0.01,weatherlink.com 1.10,2013-11-13 00:48:00,
2013-11-12 19:03:00,23.9,16.0,30.76,NW,317,0.0,2.0,72,0.00,,,0.01,weatherlink.com 1.10,2013-11-13 01:03:00,
2013-11-12 19:18:00,23.6,15.0,30.76,NW,317,0.0,3.0,71,0.00,,,0.01,weatherlink.com 1.10,2013-11-13 01:18:00,
2013-11-12 19:33:00,23.5,16.0,30.75,NW,317,0.0,2.0,72,0.00,,,0.01,weatherlink.com 1.10,2013-11-13 01:33:00,
2013-11-12 19:48:00,23.1,16.0,30.75,NW,316,1.0,2.0,74,0.00,,,0.01,weatherlink.com 1.10,2013-11-13 01:48:00,
2013-11-12 20:03:00,22.7,16.0,30.75,NW,316,1.0,2.0,74,0.00,,,0.01,weatherlink.com 1.10,2013-11-13 02:03:00,
2013-11-12 20:18:00,22.7,16.0,30.75,NW,316,1.0,1.0,75,0.00,,,0.01,weatherlink.com 1.10,2013-11-13 02:18:00,
2013-11-12 20:33:00,22.5,16.0,30.75,NW,316,0.0,2.0,75,0.00,,,0.01,weatherlink.com 1.10,2013-11-13 02:33:00,
2013-11-12 20:48:00,22.1,16.0,30.74,NW,316,0.0,1.0,77,0.00,,,0.01,weatherlink.com 1.10,2013-11-13 02:48:00,
2013-11-12 21:03:00,21.7,16.0,30.74,NW,316,0.0,1.0,79,0.00,,,0.01,weatherlink.com 1.10,2013-11-13 03:03:00,
2013-11-12 21:18:00,21.6,16.0,30.74,NW,316,0.0,2.0,79,0.00,,,0.01,weatherlink.com 1.10,2013-11-13 03:18:00,
2013-11-12 21:33:00,21.6,16.0,30.74,NW,316,0.0,2.0,78,0.00,,,0.01,weatherlink.com 1.10,2013-11-13 03:33:00,
2013-11-12 21:48:00,21.6,15.0,30.74,NW,313,0.0,2.0,77,0.00,,,0.01,weatherlink.com 1.10,2013-11-13 03:48:00,
2013-11-12 22:03:00,21.8,15.0,30.74,WNW,301,1.0,2.0,76,0.00,,,0.01,weatherlink.com 1.10,2013-11-13 04:03:00,
2013-11-12 22:18:00,22.0,15.0,30.74,WNW,287,2.0,3.0,75,0.00,,,0.01,weatherlink.com 1.10,2013-11-13 04:18:00,
2013-11-12 22:33:00,22.6,15.0,30.74,WNW,291,1.0,4.0,74,0.00,,,0.01,weatherlink.com 1.10,2013-11-13 04:33:00,
2013-11-12 22:48:00,22.4,15.0,30.75,WNW,297,2.0,3.0,74,0.00,,,0.01,weatherlink.com 1.10,2013-11-13 04:48:00,
2013-11-12 23:03:00,22.4,16.0,30.75,WNW,296,0.0,3.0,75,0.00,,,0.01,weatherlink.com 1.10,2013-11-13 05:03:00,
2013-11-12 23:18:00,22.0,16.0,30.75,WNW,296,0.0,2.0,76,0.00,,,0.01,weatherlink.com 1.10,2013-11-13 05:18:00,
2013-11-12 23:33:00,21.4,16.0,30.73,WNW,296,0.0,1.0,78,0.00,,,0.01,weatherlink.com 1.10,2013-11-13 05:33:00,
2013-11-12 23:48:00,20.8,15.0,30.73,WNW,296,0.0,1.0,79,0.00,,,0.01,weatherlink.com 1.10,2013-11-13 05:48:00,